Location: Aldenham
(51.6667°N, 0.3500°W)
Time: 07:22:34
(UTC+00:00)

Altair - Pass Details

Date: 23 February 2026
Orbit: 1502 x 1682 km, 47.2° (Epoch: 9 March)

Event Time Altitude Azimuth Distance (km) Brightness Sun altitude
Exits shadow 07:01:35 - 273° (W) 4,688 9.4 -0.5°
Rises 07:01:42 0° 273° (W) 4,653 9.4 -0.5°
Reaches altitude 10° 07:04:43 10° 270° (W) 3,683 8.9 -0.1°
Maximum altitude 07:13:50 64° 192° (SSW) 1,691 7.9 1.3°
Drops below altitude 10° 07:23:18 10° 114° (ESE) 3,805 12.1 2.7°
Sets 07:26:28 0° 112° (ESE) 4,814 13.6 3.1°
